Terminal Aerodrome Forecast
Issued by NWS Green Bay, WI

Home | Current Version | Previous Version | Text Only | Print | Product List | Glossary Off
Versions: 1 2 3 4 5 6 7 8 9 10 11 12 13 14 15 16 17 18 19 20 21 22 23 24 25 26 27 28 29 30 31 32 33 34 35 36 37 38 39 40

150
FTUS43 KGRB 261735
TAFGRB
TAF
KGRB 261735Z 2618/2718 15006KT P6SM -RA FEW060 BKN070 OVC090
     FM261900 19010KT P6SM SCT035 OVC060
     FM270000 23006KT P6SM -SHRA SCT020 OVC050
     FM270300 28005KT 6SM SHRA OVC020
     FM270700 32007KT 4SM SHRA OVC008
     FM271700 27010KT 6SM -SHRA OVC010=

USA.gov is the U.S. government's official web portal to all federal, state and local government web resources and services.